Location: Maribel
(35.1668°N, 76.7066°W)
Time: 03:58:30
(UTC+00:00)

Daily predictions for brighter satellites

Satellite Brightness Start Highest point End
(mag) Time Altitude Azimuth Time Altitude Azimuth Time Altitude Azimuth
Cosmos 1975 3.4 00:05:44 56° WSW 00:05:44 56° WSW 00:09:29 10° S
Cosmos 1603 3.6 00:01:06 10° SSW 00:06:49 89° WNW 00:07:52 61° NNE
Gbstr 26 Del rocket 3.8 00:01:12 10° SW 00:08:28 82° SE 00:09:20 68° ENE
OAO 2 Rocket 3.5 00:06:33 10° W 00:11:29 63° SSW 00:11:29 63° SSW
USA 267 4.2 00:12:10 10° SSE 00:18:20 44° SW 00:24:32 10° WNW
Meteor 2-4 Rocket 4.1 00:14:51 10° SSW 00:20:42 64° W 00:23:09 35° NNW
YAOGAN 1 4.1 00:17:45 10° SSW 00:21:41 35° W 00:25:40 10° NNW
Cosmos 1867 4.1 00:20:07 10° NNW 00:24:07 50° NW 00:24:07 50° NW
Cosmos 1943 Rocket 3.8 00:29:37 10° NNW 00:31:42 24° NNW 00:31:42 24° NNW
CZ-4C R/B 3.8 00:53:10 10° WSW 00:55:41 27° W 00:55:41 27° W
CZ-3B R/B 3.4 00:52:24 10° SW 00:56:30 35° SSW 00:56:30 35° SSW
Lacrosse 5 4.3 01:07:00 10° WSW 01:08:49 19° W 01:08:49 19° W
CZ-4C R/B 4.1 08:25:22 38° ENE 08:25:22 38° ENE 08:31:44 10° ESE
USA 234 4.3 08:45:21 10° NE 08:49:13 39° NE 08:49:13 39° NE
SL-16 R/B 4.4 09:02:12 16° SSE 09:02:12 16° SSE 09:03:18 10° SSE
Cosmos 2263 Rocket 2.6 09:32:47 56° NE 09:32:47 56° NE 09:37:12 10° NNE
FALCON 9 R/B 2.9 09:31:18 71° WSW 09:32:14 85° S 09:51:38 10° E
Cosmos 1484 Rocket 4.3 09:43:03 34° ESE 09:43:03 34° ESE 09:45:57 10° SSE
Cosmos 1954 Rocket 4.3 09:47:08 48° NNE 09:48:24 64° ENE 09:53:39 10° SSE
Timation 1 Rocket 4.2 09:46:45 28° SSW 09:50:02 87° ESE 09:56:01 10° NNE
Cosmos 1703 Rocket 4.3 09:50:40 41° NE 09:51:44 52° E 09:55:59 10° SSE
PSLV R/B 4.4 09:53:49 10° NNE 09:57:53 58° E 10:01:56 10° S
Okean O Rocket 3.8 09:58:05 10° NE 10:01:48 26° E 10:05:31 10° SSE
Cosmos 1869 Rocket 3.8 09:58:51 10° S 10:03:07 66° E 10:07:26 10° NNE
STARLINK 1040 4.4 10:12:48 31° ENE 10:12:48 31° ENE 10:14:55 10° ESE
STARLINK 1033 4.5 10:12:52 30° ENE 10:12:52 30° ENE 10:14:59 10° ESE
Cosmos 1461 3.0 10:12:45 59° SW 10:12:45 59° SW 10:16:53 10° SSE
STARLINK 1031 4.5 10:13:05 30° ENE 10:13:05 30° ENE 10:15:14 10° ESE
STARLINK 1024 4.4 10:13:15 31° ENE 10:13:15 31° ENE 10:15:29 10° ESE
CZ-4C R/B 3.3 10:10:36 39° WNW 10:12:54 48° WSW 10:20:50 10° S
Nadezhda 4 Rocket 4.0 10:11:23 41° NW 10:13:00 51° W 10:18:53 10° SSW
STARLINK 1035 4.4 10:13:32 31° ENE 10:13:32 31° ENE 10:15:42 10° ESE
STARLINK 1032 4.4 10:13:43 31° ENE 10:13:43 31° ENE 10:15:53 10° ESE
STARLINK 1011 4.4 10:13:54 32° ENE 10:13:54 32° ENE 10:16:08 10° ESE
STARLINK 1036 4.4 10:14:10 31° ENE 10:14:10 31° ENE 10:16:22 10° ESE
STARLINK 1047 4.3 10:14:35 32° ENE 10:14:35 32° ENE 10:16:48 10° ESE
STARLINK 1022 4.4 10:14:07 33° NNE 10:14:27 34° NE 10:17:44 10° ESE
Cosmos 1140 Rocket 3.7 10:17:10 45° WSW 10:17:10 45° WSW 10:22:05 10° S
Cosmos 1346 Rocket 3.2 10:13:58 10° S 10:17:46 61° E 10:21:36 10° NNE
STARLINK 1042 4.3 10:17:21 35° NNE 10:17:50 37° NE 10:21:10 10° ESE
Cosmos 1452 Rocket 3.6 10:17:00 28° SW 10:19:33 52° WNW 10:24:43 10° N
Orbus 7S? 3.5 10:21:37 39° NE 10:21:37 39° NE 10:23:16 10° NE
STARLINK 1056 4.2 10:20:32 36° NNE 10:21:09 39° NE 10:24:31 10° ESE
STARLINK 1054 4.1 10:23:43 36° N 10:24:29 42° NE 10:27:53 10° ESE
Cosmos 1943 3.1 10:20:54 22° NNW 10:24:41 89° E 10:30:18 10° SSE
SKYMED 2 3.6 10:20:38 10° SSE 10:24:57 78° ENE 10:28:41 14° N
Cosmos 1340 2.5 10:22:39 10° S 10:26:24 88° WNW 10:30:11 10° N
STARLINK 1062 4.0 10:26:46 36° N 10:27:39 45° NE 10:31:06 10° ESE
MOS 1-B 4.2 10:22:05 10° NNE 10:27:52 83° WNW 10:33:37 10° SSW
STARLINK 1053 3.9 10:30:08 36° N 10:31:10 49° NE 10:34:38 10° ESE
STARLINK 1044 2.9 10:31:13 61° NNE 10:31:19 62° NE 10:34:10 10° SE
Okean 1-7 3.0 10:29:33 27° NNW 10:31:46 61° W 10:36:03 10° S
STARLINK 1061 3.7 10:33:04 35° NNW 10:34:14 53° NE 10:37:44 10° ESE
USA 234 4.0 10:28:52 10° NNE 10:34:28 32° NNW 10:36:36 26° WNW
Cosmos 2026 Rocket 3.9 10:28:21 10° N 10:34:34 81° W 10:40:52 10° S
GPS 2-04 Rocket1 3.9 10:32:14 17° SW 10:34:44 37° SSE 10:38:30 10° E
FALCON 9 DEB 3.4 10:35:46 34° SSE 10:35:46 34° SSE 10:37:19 10° SE
Cosmos 2084 Rocket 4.4 10:35:44 29° WSW 10:35:46 29° WSW 10:39:32 10° S
STARLINK 1067 3.6 10:36:15 34° NNW 10:37:33 58° NE 10:41:05 10° ESE
Cosmos 2279 Rocket 3.9 10:34:09 10° S 10:40:20 88° W 10:46:36 10° N
STARLINK 1058 3.5 10:39:23 32° NNW 10:40:49 63° NE 10:44:21 10° SE
NOAA 6 4.2 10:35:58 10° NNE 10:41:06 75° ESE 10:46:14 10° S
PAYLOAD B 4.1 10:36:43 10° N 10:42:16 80° WNW 10:47:48 10° SSW
FALCON 9 DEB 3.1 10:42:46 36° S 10:42:46 36° S 10:44:33 10° SSE
STARLINK 1043 3.4 10:42:33 31° NNW 10:44:07 68° NE 10:47:41 10° SE
Cosmos 44 3.4 10:41:09 10° SW 10:45:48 47° WNW 10:50:15 10° NNE
GRACE-FO 1 4.5 10:42:45 10° S 10:46:26 69° W 10:50:09 10° N
PSLV R/B 3.7 10:46:56 28° N 10:47:03 28° NNE 10:49:13 10° ENE
Cosmos 371 Rocket 3.2 10:42:16 10° SSW 10:47:06 88° WNW 10:51:59 10° NNE
STARLINK 1065 3.3 10:45:40 29° NW 10:47:22 74° NE 10:50:56 10° SE
Cosmos 1603 4.2 10:45:19 22° NW 10:48:30 40° WSW 10:53:46 10° S
Meteor 1-14 Rocket 4.5 10:42:53 10° SSW 10:48:37 50° WNW 10:54:26 10° N
STARLINK 1063 3.2 10:48:57 27° NW 10:50:46 80° NE 10:54:21 10° SE
Cosmos 1634 Rocket 4.3 10:45:35 10° SSW 10:51:23 41° W 10:57:11 10° N
STARLINK 1064 3.2 10:52:02 25° NW 10:53:59 87° NE 10:57:34 10° SE
Cosmos 1602 4.5 10:50:47 10° SW 10:54:06 29° W 10:57:29 10° NNW
STARLINK 1041 3.1 10:55:13 24° NW 10:57:18 86° SW 11:00:53 10° SE
SJ-7 4.4 10:54:03 10° NNE 10:58:03 83° ESE 11:02:01 10° S
ALOS 2.5 10:53:38 10° N 10:58:06 46° WNW 11:02:32 10° SW
USA 116 4.0 10:54:55 10° S 10:59:14 72° W 11:04:09 10° NNW
OE (NEXTSAT) 4.3 10:58:08 24° WNW 11:00:07 82° SW 11:03:38 10° SE
STARLINK 1038 3.2 10:58:25 22° NW 11:00:37 80° SW 11:04:12 10° SE
Meteor 2-4 Rocket 3.8 10:58:17 10° N 11:03:45 78° E 11:09:05 10° SSE
STARLINK 1046 3.2 11:01:37 20° NW 11:03:57 73° SW 11:07:31 10° SE
Cosmos 1331 Rocket 3.9 10:59:23 10° SSW 11:04:29 67° WNW 11:09:38 10° NNE
Meteor 1-19 Rocket 4.2 11:01:02 10° NNW 11:06:30 60° W 11:12:04 10° S
Okean 1 4.1 11:04:13 13° NW 11:07:10 30° W 11:10:39 10° SSW
STARLINK 1039 3.3 11:04:49 19° NW 11:07:17 67° SW 11:10:50 10° SE
STARLINK 1045 3.3 11:06:36 18° NW 11:09:08 64° SW 11:12:41 10° SE
BREEZE-M DEB 3.6 11:06:06 15° WNW 11:10:22 59° SW 11:14:19 10° SE
COSMO-SKYMED 1 3.5 11:09:20 10° SSW 11:13:03 27° W 11:16:46 10° NW
Okean 3 3.4 11:09:47 10° NNW 11:13:57 67° W 11:18:07 10° S
Geosat 4.3 11:10:29 10° S 11:15:19 49° WSW 11:20:12 10° NW
Cosmos 2263 Rocket 3.7 11:14:39 13° WNW 11:16:08 14° NW 11:19:05 10° NNW
Cosmos 1655 Rocket 4.0 11:10:45 10° N 11:16:58 79° W 11:23:11 10° S
Cosmos 1666 4.0 11:14:39 10° SSE 11:18:17 44° E 11:21:56 10° NNE
Cosmos 1110 Rocket 4.3 11:13:47 10° SW 11:18:42 43° WNW 11:23:37 10° N
NOSS 3-2 (A) 3.3 11:14:13 10° SW 11:19:48 80° WNW 11:26:03 10° NNE
GEOS 3 Rocket 3.9 11:15:07 10° SSE 11:20:01 49° WSW 11:24:59 10° NW
Cosmos 2221 Rocket 4.2 11:23:19 10° NNW 11:27:19 34° W 11:31:18 10° SSW
Cosmos 1733 Rocket 3.4 11:25:11 10° SSW 11:29:14 40° W 11:33:18 10° N
Cosmos 1536 2.8 11:26:01 10° S 11:30:04 75° W 11:34:08 10° N
Cosmos 44 Rocket 3.4 11:25:15 10° SSW 11:30:11 86° ESE 11:35:01 10° NNE
USA 238 DEB 3.7 11:23:51 10° SW 11:30:24 61° NW 11:37:10 10° NNE
USA 238 3.7 11:23:58 10° SW 11:30:30 62° NW 11:37:17 10° NNE
Okean O Rocket 2.7 11:34:32 10° NNW 11:38:00 23° WNW 11:41:27 10° WSW
CENTAUR R/B 3.0 11:33:29 10° SSW 11:39:05 65° ESE 11:45:34 10° NE
IRIDIUM 114 4.5 11:35:09 10° N 11:40:23 85° E 11:45:36 10° S
Cosmos 2292 Rocket 4.4 11:34:37 10° N 11:40:56 76° E 11:45:33 10° SSE
